FDB5JN OOMS-OMDB

Flight info

Callsign FDB5JN
Flight time 0h 41m
Altitude 20000
Route MCT T508 SOLUD P574 IMPED
Aircraft B738/M-SDE2E3FGHIRWXY/LB1

Departure

Time 2026-05-04 05:58
Airport Muscat International Airport (OOMS)

Arrival

Time 2026-05-04 06:40
Airport Dubai International Airport (OMDB)
Time Latitude Longitude Altitude Speed Heading
2026-05-04 05:31 23.60139 58.28164 40 ft 0 kts 175°
2026-05-04 05:45 23.60140 58.28164 40 ft 1 kts 176°
2026-05-04 05:47 23.60240 58.28179 40 ft 2 kts 225°
2026-05-04 05:47 23.60249 58.28191 40 ft 2 kts 238°
2026-05-04 05:47 23.60255 58.28205 40 ft 2 kts 252°
2026-05-04 05:48 23.60258 58.28218 40 ft 0 kts 263°
2026-05-04 05:48 23.60259 58.28225 40 ft 0 kts 265°
2026-05-04 05:51 23.60263 58.28171 40 ft 10 kts 297°
2026-05-04 05:51 23.60320 58.28138 40 ft 9 kts 318°
2026-05-04 05:52 23.60330 58.28059 40 ft 12 kts 263°
2026-05-04 05:52 23.60327 58.27953 40 ft 15 kts 281°
2026-05-04 05:52 23.60386 58.27854 40 ft 15 kts 309°
2026-05-04 05:52 23.60453 58.27771 40 ft 13 kts 310°
2026-05-04 05:53 23.60482 58.27681 40 ft 13 kts 263°
2026-05-04 05:54 23.60407 58.26749 40 ft 22 kts 265°
2026-05-04 05:55 23.60392 58.26573 40 ft 23 kts 265°
2026-05-04 05:55 23.60376 58.26394 40 ft 23 kts 264°
2026-05-04 05:55 23.60364 58.26221 40 ft 23 kts 266°
2026-05-04 05:55 23.60349 58.26041 40 ft 24 kts 264°
2026-05-04 05:56 23.60338 58.25884 41 ft 16 kts 276°
2026-05-04 05:56 23.60416 58.25825 40 ft 14 kts 353°
2026-05-04 05:56 23.60510 58.25815 40 ft 13 kts 355°
2026-05-04 05:56 23.60578 58.25811 40 ft 2 kts 16°
2026-05-04 05:57 23.60591 58.25829 40 ft 4 kts 69°
2026-05-04 05:57 23.60604 58.25924 40 ft 36 kts 86°
2026-05-04 05:57 23.60646 58.26475 40 ft 107 kts 86°
2026-05-04 05:57 23.60730 58.27526 40 ft 167 kts 85°
2026-05-04 05:58 23.60820 58.28846 591 ft 174 kts 84°
2026-05-04 05:58 23.60905 58.30125 1236 ft 176 kts 83°
2026-05-04 05:58 23.60953 58.31510 1607 ft 191 kts 84°
2026-05-04 05:58 23.60985 58.32986 2047 ft 202 kts 84°
2026-05-04 05:59 23.61016 58.34557 2399 ft 219 kts 84°
2026-05-04 05:59 23.61058 58.36260 2930 ft 226 kts 82°
2026-05-04 05:59 23.61366 58.37894 3637 ft 219 kts 63°
2026-05-04 05:59 23.62178 58.39240 4240 ft 213 kts 35°
2026-05-04 06:00 23.63500 58.39871 4834 ft 208 kts
2026-05-04 06:00 23.64874 58.39589 5415 ft 208 kts 335°
2026-05-04 06:00 23.66211 58.38865 5835 ft 221 kts 331°
2026-05-04 06:00 23.67442 58.37752 6178 ft 241 kts 303°
2026-05-04 06:01 23.68008 58.36020 6759 ft 251 kts 284°
2026-05-04 06:01 23.68393 58.34164 7493 ft 252 kts 288°
2026-05-04 06:03 23.73126 58.21337 12649 ft 274 kts 294°
2026-05-04 06:03 23.73854 58.19408 13354 ft 278 kts 294°
2026-05-04 06:05 23.79586 58.04255 16865 ft 358 kts 295°
2026-05-04 06:05 23.81542 57.99067 17696 ft 380 kts 295°
2026-05-04 06:05 23.82557 57.96366 18294 ft 384 kts 294°
2026-05-04 06:06 23.83573 57.93663 18679 ft 390 kts 294°
2026-05-04 06:06 23.84605 57.90911 18947 ft 388 kts 294°
2026-05-04 06:06 23.85624 57.88197 19198 ft 390 kts 294°
2026-05-04 06:06 23.86657 57.85446 19470 ft 392 kts 294°
2026-05-04 06:07 23.87682 57.82716 19708 ft 394 kts 294°
2026-05-04 06:07 23.88725 57.79936 19796 ft 396 kts 294°
2026-05-04 06:07 23.89764 57.77164 19782 ft 391 kts 294°
2026-05-04 06:07 23.90782 57.74442 19798 ft 390 kts 294°
2026-05-04 06:08 23.91804 57.71710 19796 ft 390 kts 294°
2026-05-04 06:08 23.92835 57.68951 19807 ft 391 kts 294°
2026-05-04 06:08 23.93858 57.66214 19794 ft 390 kts 294°
2026-05-04 06:08 23.94881 57.63474 19802 ft 390 kts 294°
2026-05-04 06:09 23.95904 57.60733 19795 ft 389 kts 294°
2026-05-04 06:09 23.96916 57.58018 19783 ft 388 kts 294°
2026-05-04 06:11 24.06583 57.40482 19797 ft 386 kts 310°
2026-05-04 06:11 24.08244 57.38215 19803 ft 386 kts 310°
2026-05-04 06:13 24.19848 57.22091 19801 ft 384 kts 309°
2026-05-04 06:14 24.29726 57.08211 19788 ft 385 kts 309°
2026-05-04 06:14 24.31358 57.05914 19783 ft 385 kts 309°
2026-05-04 06:15 24.33002 57.03598 19779 ft 384 kts 309°
2026-05-04 06:15 24.34639 57.01291 19778 ft 385 kts 309°
2026-05-04 06:15 24.36280 56.98978 19782 ft 384 kts 309°
2026-05-04 06:15 24.37924 56.96659 19783 ft 384 kts 309°
2026-05-04 06:16 24.39549 56.94367 19783 ft 384 kts 309°
2026-05-04 06:16 24.41206 56.92029 19776 ft 384 kts 309°
2026-05-04 06:16 24.42847 56.89711 19786 ft 385 kts 309°
2026-05-04 06:16 24.44482 56.87401 19781 ft 384 kts 309°
2026-05-04 06:17 24.46106 56.85106 19798 ft 384 kts 309°
2026-05-04 06:17 24.47761 56.82764 19791 ft 385 kts 309°
2026-05-04 06:17 24.49404 56.80439 19781 ft 384 kts 309°
2026-05-04 06:17 24.51024 56.78145 19789 ft 384 kts 309°
2026-05-04 06:18 24.52669 56.75815 19786 ft 384 kts 309°
2026-05-04 06:18 24.54288 56.73520 19781 ft 385 kts 309°
2026-05-04 06:18 24.55944 56.71176 19804 ft 384 kts 309°
2026-05-04 06:20 24.67401 56.54961 19800 ft 379 kts 309°
2026-05-04 06:20 24.68970 56.52731 19797 ft 362 kts 309°
2026-05-04 06:21 24.74922 56.44266 18592 ft 350 kts 309°
2026-05-04 06:21 24.76404 56.42155 18104 ft 347 kts 309°
2026-05-04 06:22 24.77883 56.40048 17618 ft 345 kts 309°
2026-05-04 06:22 24.79323 56.37993 17126 ft 342 kts 309°
2026-05-04 06:25 24.95493 56.10475 12196 ft 299 kts 300°
2026-05-04 06:25 24.96487 56.08538 12109 ft 287 kts 300°
2026-05-04 06:26 24.97327 56.06577 12015 ft 277 kts 290°
2026-05-04 06:26 24.97730 56.04546 11840 ft 271 kts 279°
2026-05-04 06:26 24.97897 56.02480 11535 ft 269 kts 276°
2026-05-04 06:26 24.98025 56.00451 11261 ft 265 kts 276°
2026-05-04 06:27 24.98743 55.92510 10080 ft 257 kts 277°
2026-05-04 06:28 24.98933 55.90564 9788 ft 255 kts 277°
2026-05-04 06:28 24.99119 55.88639 9491 ft 253 kts 277°
2026-05-04 06:28 24.99305 55.86715 9213 ft 251 kts 277°
2026-05-04 06:28 24.99488 55.84813 8875 ft 249 kts 277°
2026-05-04 06:29 24.99695 55.82928 8502 ft 247 kts 281°
2026-05-04 06:29 25.00228 55.81174 8116 ft 244 kts 297°
2026-05-04 06:29 25.01120 55.79604 7805 ft 242 kts 302°
2026-05-04 06:29 25.02065 55.78064 7472 ft 242 kts 302°
2026-05-04 06:30 25.02973 55.76518 7176 ft 240 kts 301°
2026-05-04 06:30 25.03857 55.74956 6890 ft 237 kts 300°
2026-05-04 06:30 25.04723 55.73406 6580 ft 236 kts 300°
2026-05-04 06:30 25.05555 55.71915 6459 ft 225 kts 300°
2026-05-04 06:31 25.06358 55.70479 6364 ft 212 kts 300°
2026-05-04 06:31 25.07107 55.69139 6294 ft 199 kts 299°
2026-05-04 06:31 25.07806 55.67885 6216 ft 188 kts 299°
2026-05-04 06:31 25.08489 55.66658 5968 ft 187 kts 300°
2026-05-04 06:32 25.09167 55.65437 5622 ft 191 kts 300°
2026-05-04 06:33 25.13978 55.56684 3496 ft 183 kts 301°
2026-05-04 06:34 25.14637 55.55506 3255 ft 181 kts 301°
2026-05-04 06:34 25.15297 55.54328 3021 ft 178 kts 301°
2026-05-04 06:34 25.15941 55.53176 2790 ft 176 kts 301°
2026-05-04 06:34 25.16575 55.52040 2562 ft 173 kts 301°
2026-05-04 06:35 25.17203 55.50914 2340 ft 170 kts 301°
2026-05-04 06:36 25.21088 55.43935 972 ft 151 kts 301°
2026-05-04 06:37 25.21649 55.42947 802 ft 151 kts 301°
2026-05-04 06:37 25.22208 55.41960 620 ft 153 kts 300°
2026-05-04 06:37 25.22778 55.40963 421 ft 156 kts 300°
2026-05-04 06:37 25.23353 55.39928 211 ft 159 kts 300°
2026-05-04 06:38 25.23933 55.38879 72 ft 154 kts 300°
2026-05-04 06:38 25.24429 55.37980 70 ft 110 kts 302°
2026-05-04 06:40 25.24855 55.36823 69 ft 10 kts 285°
2026-05-04 06:40 25.24873 55.36729 69 ft 15 kts 284°
2026-05-04 06:40 25.24923 55.36608 69 ft 19 kts 303°
2026-05-04 06:40 25.25001 55.36465 69 ft 22 kts 301°
2026-05-04 06:41 25.25078 55.36324 69 ft 20 kts 301°
2026-05-04 06:41 25.25152 55.36190 69 ft 19 kts 302°
2026-05-04 06:41 25.25225 55.36058 69 ft 21 kts 301°
2026-05-04 06:41 25.25306 55.35912 69 ft 23 kts 302°
2026-05-04 06:42 25.25394 55.35755 69 ft 23 kts 302°
2026-05-04 06:42 25.25478 55.35604 69 ft 22 kts 302°
2026-05-04 06:42 25.25561 55.35452 69 ft 24 kts 301°
2026-05-04 06:44 25.26234 55.35326 69 ft 18 kts 31°
2026-05-04 06:44 25.26339 55.35396 69 ft 17 kts 32°
2026-05-04 06:44 25.26437 55.35463 69 ft 16 kts 32°
2026-05-04 06:45 25.26504 55.35493 69 ft 5 kts 345°
2026-05-04 06:45 25.26529 55.35463 69 ft 5 kts 303°
2026-05-04 06:45 25.26555 55.35424 69 ft 4 kts 326°
2026-05-04 06:45 25.26583 55.35428 69 ft 3 kts 27°
2026-05-04 06:46 25.26610 55.35447 69 ft 4 kts 32°
2026-05-04 06:46 25.26626 55.35458 69 ft 0 kts 32°